KC8SWY-15 Weather Reports


time (UTC)temp
C
wind
direction
speed
KPH
gust
KPH
rain 1hr
cm
rain 24hr
cm
rain mn
cm
humidity
%
barometer
mb
20260509053912 11 200 0.0 0.0 0.00 0.00 0.00 80 1006.7
20260509053412 11 192 0.0 0.0 0.00 0.00 0.00 80 1006.6
20260509052912 11 187 1.6 4.8 0.00 0.00 0.00 80 1006.7
20260509052412 11 184 1.6 9.7 0.00 0.00 0.00 79 1006.7
20260509051912 10 188 0.0 4.8 0.00 0.00 0.00 78 1006.7
20260509051412 10 171 0.0 4.8 0.00 0.00 0.00 78 1006.8
20260509050912 10 191 1.6 1.6 0.00 0.00 0.00 77 1006.8
20260509050412 10 197 1.6 8.0 0.00 0.00 0.00 77 1006.8
20260509045912 10 194 1.6 3.2 0.00 0.00 0.00 78 1006.8
20260509045412 8 171 3.2 6.4 0.00 0.00 0.00 79 1006.7
20260509044912 7 177 1.6 8.0 0.00 0.00 0.00 82 1006.7
20260509044412 6 182 0.0 1.6 0.00 0.00 0.00 78 1006.9
20260509043912 6 213 0.0 0.0 0.00 0.00 0.00 78 1007.0
20260509043412 6 215 0.0 1.6 0.00 0.00 0.00 78 1007.0
20260509042912 6 311 0.0 0.0 0.00 0.00 0.00 77 1006.9
20260509042412 6 311 0.0 0.0 0.00 0.00 0.00 77 1006.9
20260509041912 6 350 0.0 0.0 0.00 0.00 0.00 77 1006.9
20260509041412 6 350 0.0 0.0 0.00 0.00 0.00 77 1006.9
20260509040912 6 350 0.0 0.0 0.00 0.00 0.00 77 1007.0
20260509040413 6 349 0.0 0.0 0.00 0.00 0.00 76 1007.1
20260509035912 6 349 0.0 0.0 0.00 0.00 0.00 76 1007.2
20260509035412 6 350 0.0 0.0 0.00 0.00 0.00 76 1007.3
20260509034912 7 350 0.0 0.0 0.00 0.00 0.00 75 1007.2
20260509034413 7 350 0.0 0.0 0.00 0.00 0.00 75 1007.3
20260509033913 7 350 0.0 0.0 0.00 0.00 0.00 75 1007.3
20260509033413 7 349 0.0 0.0 0.00 0.00 0.00 74 1007.3
20260509032913 7 350 0.0 0.0 0.00 0.00 0.00 75 1007.4
20260509032413 7 349 0.0 0.0 0.00 0.00 0.00 75 1007.5
20260509031913 7 350 0.0 0.0 0.00 0.00 0.00 74 1007.5
20260509031413 7 350 0.0 0.0 0.00 0.00 0.00 72 1007.6
20260509030913 7 350 0.0 0.0 0.00 0.00 0.00 72 1007.6
20260509030413 7 350 0.0 0.0 0.00 0.00 0.00 70 1007.6
20260509025913 7 350 0.0 0.0 0.00 0.00 0.00 70 1007.6
20260509025413 7 349 0.0 0.0 0.00 0.00 0.00 71 1007.6
20260509024913 7 350 0.0 0.0 0.00 0.00 0.00 71 1007.8
20260509024413 7 350 0.0 0.0 0.00 0.00 0.00 72 1007.8
20260509023913 7 350 0.0 0.0 0.00 0.00 0.00 70 1007.7
20260509023413 8 350 0.0 0.0 0.00 0.00 0.00 70 1007.7
20260509022913 8 350 0.0 0.0 0.00 0.00 0.00 68 1007.8
20260509022413 8 350 0.0 0.0 0.00 0.00 0.00 64 1007.9
20260509021913 8 350 0.0 0.0 0.00 0.00 0.00 66 1007.8
20260509021413 8 350 0.0 0.0 0.00 0.00 0.00 65 1007.8
20260509020913 8 350 0.0 0.0 0.00 0.00 0.00 65 1007.9
20260509020413 9 350 0.0 0.0 0.00 0.00 0.00 63 1007.9
20260509015913 9 350 0.0 0.0 0.00 0.00 0.00 61 1007.8
20260509015413 9 350 0.0 0.0 0.00 0.00 0.00 60 1007.8
20260509014913 10 349 0.0 0.0 0.00 0.00 0.00 59 1007.8
20260509014413 10 349 0.0 0.0 0.00 0.00 0.00 58 1007.8
20260509013913 10 350 0.0 0.0 0.00 0.00 0.00 57 1007.8
20260509013413 10 350 0.0 0.0 0.00 0.00 0.00 56 1007.7
20260509012913 11 350 0.0 0.0 0.00 0.00 0.00 55 1007.7
20260509012413 11 350 0.0 0.0 0.00 0.00 0.00 54 1007.7
20260509011913 11 350 0.0 0.0 0.00 0.00 0.00 54 1007.7
20260509011413 12 349 0.0 0.0 0.00 0.00 0.00 51 1007.7
20260509010913 12 349 0.0 0.0 0.00 0.00 0.00 50 1007.6
20260509010413 13 349 0.0 0.0 0.00 0.00 0.00 49 1007.6
20260509005913 13 349 0.0 0.0 0.00 0.00 0.00 45 1007.6
20260509005413 13 349 0.0 0.0 0.00 0.00 0.00 43 1007.5
20260509004913 14 349 0.0 0.0 0.00 0.00 0.00 40 1007.5
20260509004413 15 349 0.0 0.0 0.00 0.00 0.00 40 1007.6
20260509003913 15 349 0.0 0.0 0.00 0.00 0.00 38 1007.5
20260509003413 15 350 0.0 0.0 0.00 0.00 0.00 37 1007.5
20260509002913 15 349 0.0 0.0 0.00 0.00 0.00 38 1007.5
20260509002413 16 355 0.0 0.0 0.00 0.00 0.00 37 1007.4
20260509001913 16 346 0.0 3.2 0.00 0.00 0.00 36 1007.4
20260509001413 16 350 0.0 0.0 0.00 0.00 0.00 36 1007.5
20260509000913 16 341 0.0 0.0 0.00 0.00 0.00 36 1007.6
20260509000413 16 0 0.0 9.7 0.00 0.00 0.00 35 1007.6
20260508235913 16 347 1.6 6.4 0.00 0.00 0.00 36 1007.6
20260508235413 16 327 1.6 12.9 0.00 0.00 0.00 35 1007.6
20260508234913 16 323 3.2 9.7 0.00 0.00 0.00 34 1007.6
20260508234413 16 337 3.2 9.7 0.00 0.00 0.00 33 1007.6
20260508233913 17 314 4.8 14.5 0.00 0.00 0.00 33 1007.7
20260508233413 17 333 3.2 12.9 0.00 0.00 0.00 33 1007.6
20260508232913 17 313 1.6 8.0 0.00 0.00 0.00 32 1007.7
20260508232413 17 343 1.6 8.0 0.00 0.00 0.00 31 1007.6
20260508231913 17 307 4.8 9.7 0.00 0.00 0.00 30 1007.6
20260508231413 17 350 6.4 19.3 0.00 0.00 0.00 29 1007.6
20260508230913 17 329 8.0 14.5 0.00 0.00 0.00 29 1007.5
20260508230413 17 309 6.4 20.9 0.00 0.00 0.00 29 1007.5
20260508225913 17 324 4.8 14.5 0.00 0.00 0.00 29 1007.6
20260508225414 17 315 3.2 14.5 0.00 0.00 0.00 29 1007.6
20260508224913 17 289 6.4 9.7 0.00 0.00 0.00 30 1007.6
20260508224414 17 281 6.4 19.3 0.00 0.00 0.00 28 1007.6
20260508223913 17 277 6.4 17.7 0.00 0.00 0.00 28 1007.6
20260508223414 17 5 8.0 16.1 0.00 0.00 0.00 28 1007.6
20260508222914 17 26 8.0 24.1 0.00 0.00 0.00 27 1007.5
20260508222414 17 340 6.4 14.5 0.00 0.00 0.00 28 1007.6
20260508221914 17 324 6.4 14.5 0.00 0.00 0.00 28 1007.6
20260508221414 17 304 8.0 17.7 0.00 0.00 0.00 27 1007.6
20260508220914 17 297 9.7 22.5 0.00 0.00 0.00 27 1007.5
20260508220414 18 327 6.4 19.3 0.00 0.00 0.00 26 1007.5
20260508215914 18 327 4.8 11.3 0.00 0.00 0.00 29 1007.6
20260508215414 18 14 6.4 16.1 0.00 0.00 0.00 27 1007.7
20260508214914 18 314 4.8 14.5 0.00 0.00 0.00 29 1007.6
20260508214414 18 339 8.0 20.9 0.00 0.00 0.00 29 1007.6
20260508213914 18 323 9.7 17.7 0.00 0.00 0.00 29 1007.6
20260508213414 18 349 6.4 20.9 0.00 0.00 0.00 29 1007.7
20260508212914 18 297 4.8 8.0 0.00 0.00 0.00 29 1007.7
20260508212414 17 18 9.7 17.7 0.00 0.00 0.00 29 1007.7
20260508211914 17 320 8.0 20.9 0.00 0.00 0.00 28 1007.8
20260508211414 18 299 3.2 20.9 0.00 0.00 0.00 30 1007.8
20260508210914 17 5 6.4 9.7 0.00 0.00 0.00 28 1007.8
20260508210414 18 250 8.0 20.9 0.00 0.00 0.00 28 1007.9
20260508205914 18 275 4.8 22.5 0.00 0.00 0.00 29 1007.9
20260508205414 18 208 1.6 6.4 0.00 0.00 0.00 30 1007.9
20260508204914 17 263 4.8 11.3 0.00 0.00 0.00 30 1008.0
20260508204414 17 288 9.7 16.1 0.00 0.00 0.00 29 1008.1
20260508203914 17 335 8.0 19.3 0.00 0.00 0.00 30 1008.0
20260508203414 17 259 3.2 22.5 0.00 0.00 0.00 33 1008.2
20260508202914 17 198 4.8 9.7 0.00 0.00 0.00 33 1008.2
20260508202414 17 254 6.4 19.3 0.00 0.00 0.00 32 1008.3
20260508201914 17 306 6.4 22.5 0.00 0.00 0.00 35 1008.3
20260508201414 17 307 6.4 22.5 0.00 0.00 0.00 34 1008.3
20260508200914 17 331 6.4 17.7 0.00 0.00 0.00 32 1008.4
20260508200414 17 310 6.4 20.9 0.00 0.00 0.00 32 1008.5
20260508195914 17 263 9.7 20.9 0.00 0.00 0.00 35 1008.7
20260508195414 17 302 9.7 24.1 0.00 0.00 0.00 33 1008.8
20260508194914 17 253 4.8 17.7 0.00 0.00 0.00 33 1008.8
20260508194414 17 301 6.4 11.3 0.00 0.00 0.00 33 1008.9
20260508193914 17 200 6.4 19.3 0.00 0.00 0.00 30 1009.0
20260508193414 17 281 4.8 12.9 0.00 0.00 0.00 34 1009.0
20260508192914 17 259 6.4 17.7 0.00 0.00 0.00 33 1009.2
20260508192414 17 259 6.4 16.1 0.00 0.00 0.00 35 1009.2
20260508191914 17 225 6.4 19.3 0.00 0.00 0.00 34 1009.2
20260508191414 17 268 6.4 16.1 0.00 0.00 0.00 35 1009.2
20260508190914 17 232 6.4 19.3 0.00 0.00 0.00 34 1009.5
20260508190414 17 227 8.0 19.3 0.00 0.00 0.00 33 1009.5
20260508185915 17 264 8.0 22.5 0.00 0.00 0.00 35 1009.6
20260508185414 17 196 4.8 14.5 0.00 0.00 0.00 38 1009.6
20260508184914 17 217 6.4 11.3 0.00 0.00 0.00 36 1009.8
20260508184414 17 250 6.4 19.3 0.00 0.00 0.00 37 1009.8
20260508183914 17 240 4.8 19.3 0.00 0.00 0.00 35 1009.7
20260508183414 16 267 3.2 11.3 0.00 0.00 0.00 37 1009.7
20260508182914 17 259 4.8 9.7 0.00 0.00 0.00 40 1009.9
20260508182414 16 311 4.8 19.3 0.00 0.00 0.00 38 1009.9
20260508181914 16 251 4.8 11.3 0.00 0.00 0.00 40 1010.0
20260508181414 16 223 6.4 19.3 0.00 0.00 0.00 39 1010.0
20260508180914 16 283 6.4 17.7 0.00 0.00 0.00 41 1010.1
20260508180414 16 284 4.8 17.7 0.00 0.00 0.00 40 1010.2
20260508175914 16 252 6.4 17.7 0.00 0.00 0.00 40 1010.4
20260508175414 15 206 4.8 22.5 0.00 0.00 0.00 42 1010.3
20260508174914 16 281 3.2 16.1 0.00 0.00 0.00 39 1010.4
20260508174414 16 250 4.8 11.3 0.00 0.00 0.00 38 1010.5
20260508173914 16 227 4.8 17.7 0.00 0.00 0.00 40 1010.6
20260508173414 16 225 3.2 20.9 0.00 0.00 0.00 43 1010.6
20260508172915 15 234 3.2 9.7 0.00 0.00 0.00 41 1010.8
20260508172415 15 271 3.2 17.7 0.00 0.00 0.00 41 1010.8
20260508171915 15 207 6.4 8.0 0.00 0.00 0.00 43 1010.8
20260508171415 15 244 6.4 20.9 0.00 0.00 0.00 42 1010.8
20260508170915 16 281 4.8 11.3 0.00 0.00 0.00 44 1010.8
20260508170415 15 165 4.8 17.7 0.00 0.00 0.00 42 1010.9
20260508165915 15 235 6.4 14.5 0.00 0.00 0.00 44 1011.1
20260508165415 15 258 6.4 14.5 0.00 0.00 0.00 42 1011.1
20260508164915 15 213 6.4 27.4 0.00 0.00 0.00 41 1011.2
20260508164415 15 260 4.8 16.1 0.00 0.00 0.00 41 1011.2
20260508163915 16 220 3.2 16.1 0.00 0.00 0.00 39 1011.4
20260508163415 15 88 3.2 9.7 0.00 0.00 0.00 38 1011.5
20260508162915 15 321 4.8 16.1 0.00 0.00 0.00 40 1011.6
20260508162415 15 209 4.8 19.3 0.00 0.00 0.00 41 1011.6
20260508161915 15 14 3.2 9.7 0.00 0.00 0.00 39 1011.5
20260508161415 15 267 1.6 11.3 0.00 0.00 0.00 41 1011.7
20260508160915 15 271 0.0 6.4 0.00 0.00 0.00 41 1011.6
20260508160415 15 290 1.6 8.0 0.00 0.00 0.00 41 1011.7
20260508155915 14 301 3.2 8.0 0.00 0.00 0.00 40 1011.8
20260508155415 14 334 4.8 9.7 0.00 0.00 0.00 41 1011.8
20260508154915 14 292 3.2 19.3 0.00 0.00 0.00 39 1011.8
20260508154415 14 248 1.6 11.3 0.00 0.00 0.00 40 1011.8
20260508153915 14 218 1.6 6.4 0.00 0.00 0.00 40 1011.8
20260508153415 14 333 3.2 8.0 0.00 0.00 0.00 40 1011.6
20260508152915 14 249 3.2 9.7 0.00 0.00 0.00 41 1011.7
20260508152415 14 194 1.6 9.7 0.00 0.00 0.00 43 1011.6
20260508151915 14 230 1.6 6.4 0.00 0.00 0.00 41 1011.7
20260508151415 14 146 1.6 6.4 0.00 0.00 0.00 43 1011.8
20260508150915 14 323 0.0 6.4 0.00 0.00 0.00 45 1011.8
20260508150415 13 267 1.6 6.4 0.00 0.00 0.00 44 1011.8
20260508145915 13 325 1.6 9.7 0.00 0.00 0.00 47 1011.9
20260508145415 13 261 0.0 4.8 0.00 0.00 0.00 51 1012.0
20260508144915 13 174 1.6 4.8 0.00 0.00 0.00 50 1012.0
20260508144415 13 243 1.6 6.4 0.00 0.00 0.00 54 1012.1
20260508143915 13 139 0.0 8.0 0.00 0.00 0.00 50 1012.0
20260508143415 13 59 0.0 4.8 0.00 0.00 0.00 53 1012.1
20260508142915 13 170 0.0 4.8 0.00 0.00 0.00 54 1012.2
20260508142415 12 188 1.6 4.8 0.00 0.00 0.00 56 1012.3
20260508141915 12 218 1.6 8.0 0.00 0.00 0.00 56 1012.4
20260508141415 13 177 1.6 6.4 0.00 0.00 0.00 58 1012.3
20260508140915 12 96 0.0 3.2 0.00 0.00 0.00 58 1012.3
20260508140415 12 119 0.0 3.2 0.00 0.00 0.00 62 1012.4
20260508135915 12 68 0.0 3.2 0.00 0.00 0.00 62 1012.5
20260508135415 12 308 0.0 1.6 0.00 0.00 0.00 65 1012.5
20260508134915 11 308 0.0 3.2 0.00 0.00 0.00 67 1012.5
20260508134415 11 301 0.0 0.0 0.00 0.00 0.00 69 1012.5
20260508133915 11 301 0.0 1.6 0.00 0.00 0.00 68 1012.5
20260508133415 11 254 0.0 0.0 0.00 0.00 0.00 70 1012.5
20260508132915 10 23 0.0 0.0 0.00 0.00 0.00 75 1012.6
20260508132415 10 23 0.0 1.6 0.00 0.00 0.00 79 1012.5
20260508131915 10 248 0.0 0.0 0.00 0.00 0.00 83 1012.5
20260508131415 9 248 0.0 0.0 0.00 0.00 0.00 86 1012.6
20260508130915 8 248 0.0 1.6 0.00 0.00 0.00 87 1012.7
20260508130415 8 227 0.0 3.2 0.00 0.00 0.00 88 1012.7
20260508125915 8 225 0.0 1.6 0.00 0.00 0.00 89 1012.7
20260508125415 8 171 0.0 3.2 0.00 0.00 0.00 90 1012.8
20260508124915 7 213 0.0 1.6 0.00 0.00 0.00 91 1012.8
20260508124415 7 246 0.0 1.6 0.00 0.00 0.00 92 1012.9
20260508123915 7 217 0.0 3.2 0.00 0.00 0.00 92 1012.8
20260508123415 7 221 0.0 1.6 0.00 0.00 0.00 93 1012.8
20260508122915 7 184 0.0 0.0 0.00 0.00 0.00 94 1012.8
20260508122415 6 164 0.0 0.0 0.00 0.00 0.00 95 1012.8
20260508121915 6 164 0.0 1.6 0.00 0.00 0.00 95 1012.8
20260508121415 5 164 0.0 0.0 0.00 0.00 0.00 95 1012.9
20260508120915 5 165 0.0 0.0 0.00 0.00 0.00 95 1012.8
20260508120415 4 164 0.0 0.0 0.00 0.00 0.00 95 1012.8
20260508115916 4 164 0.0 0.0 0.00 0.00 0.00 95 1012.7
20260508115416 3 165 0.0 0.0 0.00 0.00 0.00 95 1012.7
20260508114916 3 164 0.0 0.0 0.00 0.00 0.00 95 1012.7
20260508114416 3 164 0.0 0.0 0.00 0.00 0.00 95 1012.7
20260508113916 2 165 0.0 0.0 0.00 0.00 0.00 95 1012.6
20260508113416 2 164 0.0 0.0 0.00 0.00 0.00 95 1012.5
20260508112916 1 164 0.0 0.0 0.00 0.00 0.00 95 1012.4
20260508112416 1 164 0.0 0.0 0.00 0.00 0.00 95 1012.4
20260508111916 1 164 0.0 0.0 0.00 0.00 0.00 94 1012.3
20260508111416 1 164 0.0 0.0 0.00 0.00 0.00 94 1012.3
20260508110916 0 164 0.0 0.0 0.00 0.00 0.00 94 1012.2
20260508110416 0 164 0.0 0.0 0.00 0.00 0.00 94 1012.2
20260508105916 0 164 0.0 0.0 0.00 0.00 0.00 94 1012.2
20260508105416 0 164 0.0 0.0 0.00 0.00 0.00 94 1012.1
20260508104916 0 164 0.0 0.0 0.00 0.00 0.00 94 1012.1
20260508104416 0 164 0.0 0.0 0.00 0.00 0.00 94 1012.1
20260508103916 0 164 0.0 0.0 0.00 0.00 0.00 93 1012.0
20260508103416 0 164 0.0 0.0 0.00 0.00 0.00 93 1012.0
20260508102916 0 164 0.0 0.0 0.00 0.00 0.00 93 1011.9
20260508102416 0 164 0.0 0.0 0.00 0.00 0.00 93 1011.8
20260508101916 0 164 0.0 0.0 0.00 0.00 0.00 93 1011.9
20260508101416 1 164 0.0 0.0 0.00 0.00 0.00 93 1011.8
20260508100916 1 164 0.0 0.0 0.00 0.00 0.00 93 1011.7
20260508100416 1 165 0.0 0.0 0.00 0.00 0.00 93 1011.7
20260508095916 1 164 0.0 0.0 0.00 0.00 0.00 94 1011.8
20260508095416 1 69 0.0 0.0 0.00 0.00 0.00 93 1011.8
20260508094916 1 69 0.0 0.0 0.00 0.00 0.00 93 1011.9
20260508094416 1 69 0.0 0.0 0.00 0.00 0.00 93 1012.1
20260508093916 1 69 0.0 0.0 0.00 0.00 0.00 93 1012.1
20260508093416 1 69 0.0 0.0 0.00 0.00 0.00 93 1012.1
20260508092916 1 69 0.0 0.0 0.00 0.00 0.00 93 1012.1
20260508092416 1 69 0.0 0.0 0.00 0.00 0.00 93 1012.2
20260508091916 1 69 0.0 0.0 0.00 0.00 0.00 93 1012.2
20260508091416 1 69 0.0 0.0 0.00 0.00 0.00 93 1012.2
20260508090916 1 69 0.0 0.0 0.00 0.00 0.00 93 1012.2
20260508090416 1 69 0.0 0.0 0.00 0.00 0.00 93 1012.2
20260508090153 2 69 0.0 0.0 0.00 0.00 0.00 93 1012.2
20260508085916 2 69 0.0 0.0 0.00 0.00 0.00 93 1012.2
20260508085416 2 69 0.0 0.0 0.00 0.00 0.00 93 1012.1
20260508084916 2 69 0.0 0.0 0.00 0.00 0.00 93 1012.1
20260508084510 2 69 0.0 0.0 0.00 0.00 0.00 93 1012.2
20260508084416 2 69 0.0 0.0 0.00 0.00 0.00 93 1012.2
20260508083916 2 69 0.0 0.0 0.00 0.00 0.00 93 1012.2
20260508083416 2 69 0.0 0.0 0.00 0.00 0.00 94 1012.1
20260508082916 2 69 0.0 0.0 0.00 0.00 0.00 93 1012.1
20260508082416 1 69 0.0 0.0 0.00 0.00 0.00 93 1012.2
20260508081916 1 69 0.0 0.0 0.00 0.00 0.00 93 1012.1
20260508081416 1 69 0.0 0.0 0.00 0.00 0.00 93 1012.2
20260508080916 1 69 0.0 0.0 0.00 0.00 0.00 93 1012.1
20260508080416 1 69 0.0 0.0 0.00 0.00 0.00 93 1012.2
20260508075916 1 69 0.0 0.0 0.00 0.00 0.00 93 1012.2
20260508075416 1 69 0.0 0.0 0.00 0.00 0.00 93 1012.2
20260508074916 2 69 0.0 0.0 0.00 0.00 0.00 93 1012.2
20260508074416 2 69 0.0 0.0 0.00 0.00 0.00 93 1012.1
20260508073916 2 69 0.0 0.0 0.00 0.00 0.00 92 1012.2
20260508073416 2 69 0.0 0.0 0.00 0.00 0.00 92 1012.3
20260508072916 2 69 0.0 0.0 0.00 0.00 0.00 92 1012.3
20260508072416 2 69 0.0 0.0 0.00 0.00 0.00 92 1012.3
20260508071916 2 69 0.0 0.0 0.00 0.00 0.00 92 1012.4
20260508071416 2 69 0.0 0.0 0.00 0.00 0.00 92 1012.4
20260508070916 2 69 0.0 0.0 0.00 0.00 0.00 92 1012.4
20260508070417 2 69 0.0 0.0 0.00 0.00 0.00 92 1012.5
20260508065917 2 69 0.0 0.0 0.00 0.00 0.00 92 1012.5
20260508065417 2 69 0.0 0.0 0.00 0.00 0.00 92 1012.6
20260508064917 2 69 0.0 0.0 0.00 0.00 0.00 92 1012.6
20260508064417 2 69 0.0 0.0 0.00 0.00 0.00 92 1012.7
20260508063917 2 69 0.0 0.0 0.00 0.00 0.00 92 1012.7
20260508063417 2 69 0.0 0.0 0.00 0.00 0.00 92 1012.7
20260508062917 2 69 0.0 0.0 0.00 0.00 0.00 92 1012.7
20260508062417 2 69 0.0 0.0 0.00 0.00 0.00 92 1012.8
20260508061917 2 69 0.0 0.0 0.00 0.00 0.00 92 1012.7
20260508061417 2 69 0.0 0.0 0.00 0.00 0.00 92 1012.8
20260508060917 3 69 0.0 0.0 0.00 0.00 0.00 92 1012.8
20260508060417 3 69 0.0 0.0 0.00 0.00 0.00 92 1012.8
20260508055917 3 69 0.0 0.0 0.00 0.00 0.00 92 1012.9
20260508055417 2 69 0.0 0.0 0.00 0.00 0.00 92 1013.0
20260508054917 2 69 0.0 0.0 0.00 0.00 0.00 91 1013.0
20260508054417 2 69 0.0 0.0 0.00 0.00 0.00 91 1013.0